Time,TemperatureF,DewpointF,PressureIn,WindDirection,WindDirectionDegrees,WindSpeedMPH,WindSpeedGustMPH,Humidity,HourlyPrecipIn,Conditions,Clouds,dailyrainin,SoftwareType,DateUTC
2013-08-24 00:00:00,67.8,63.9,30.11,ENE,57,0.0,0.0,87,0.00,,,0.00,meteohub,2013-08-24 05:00:00,
2013-08-24 00:05:00,67.6,63.7,30.12,ENE,57,0.0,0.0,87,0.00,,,0.00,meteohub,2013-08-24 05:05:00,
2013-08-24 00:10:00,67.5,63.9,30.12,ENE,57,0.0,1.0,88,0.00,,,0.00,meteohub,2013-08-24 05:10:00,
2013-08-24 00:15:00,67.5,63.9,30.12,NE,55,0.0,1.0,88,0.00,,,0.00,meteohub,2013-08-24 05:15:00,
2013-08-24 00:20:00,67.5,63.9,30.12,ENE,60,0.0,1.0,88,0.00,,,0.00,meteohub,2013-08-24 05:20:00,
2013-08-24 00:25:00,67.5,63.9,30.12,ENE,59,0.0,1.0,88,0.00,,,0.00,meteohub,2013-08-24 05:25:00,
2013-08-24 00:31:00,67.5,63.9,30.12,ENE,59,1.0,2.0,88,0.00,,,0.00,meteohub,2013-08-24 05:31:00,
2013-08-24 00:36:00,67.6,63.7,30.12,ENE,76,2.0,4.0,87,0.00,,,0.00,meteohub,2013-08-24 05:36:00,
2013-08-24 00:41:00,67.6,63.3,30.12,ENE,70,0.0,4.0,86,0.00,,,0.00,meteohub,2013-08-24 05:41:00,
2013-08-24 00:46:00,67.6,63.3,30.12,ENE,66,0.0,4.0,86,0.00,,,0.00,meteohub,2013-08-24 05:46:00,
2013-08-24 00:51:00,67.5,63.1,30.12,ENE,75,0.0,2.0,86,0.00,,,0.00,meteohub,2013-08-24 05:51:00,
2013-08-24 00:56:00,67.5,62.8,30.12,ENE,71,1.0,2.0,85,0.00,,,0.00,meteohub,2013-08-24 05:56:00,
2013-08-24 01:01:00,67.5,62.8,30.12,ENE,74,1.0,2.0,85,0.00,,,0.00,meteohub,2013-08-24 06:01:00,
2013-08-24 01:06:00,67.3,63.0,30.12,ENE,68,0.0,3.0,86,0.00,,,0.00,meteohub,2013-08-24 06:06:00,
2013-08-24 01:11:00,67.3,63.0,30.12,ENE,63,0.0,3.0,86,0.00,,,0.00,meteohub,2013-08-24 06:11:00,
2013-08-24 01:16:00,67.1,62.8,30.12,ENE,60,1.0,3.0,86,0.00,,,0.00,meteohub,2013-08-24 06:16:00,
2013-08-24 01:21:00,67.1,62.4,30.12,ENE,71,1.0,3.0,85,0.00,,,0.00,meteohub,2013-08-24 06:21:00,
2013-08-24 01:26:00,67.1,62.4,30.12,East,79,0.0,4.0,85,0.00,,,0.00,meteohub,2013-08-24 06:26:00,
2013-08-24 01:32:00,66.9,62.2,30.12,ENE,71,0.0,4.0,85,0.00,,,0.00,meteohub,2013-08-24 06:32:00,
2013-08-24 01:37:00,66.7,62.1,30.12,ENE,73,0.0,4.0,85,0.00,,,0.00,meteohub,2013-08-24 06:37:00,
2013-08-24 01:42:00,66.7,62.1,30.12,East,81,0.0,4.0,85,0.00,,,0.00,meteohub,2013-08-24 06:42:00,
2013-08-24 01:47:00,66.6,62.2,30.12,ENE,78,0.0,2.0,86,0.00,,,0.00,meteohub,2013-08-24 06:47:00,
2013-08-24 01:52:00,66.4,62.1,30.12,ENE,70,1.0,2.0,86,0.00,,,0.00,meteohub,2013-08-24 06:52:00,
2013-08-24 01:57:00,66.0,61.7,30.13,ENE,63,1.0,2.0,86,0.00,,,0.00,meteohub,2013-08-24 06:57:00,
2013-08-24 02:02:00,66.0,61.7,30.13,ENE,67,1.0,2.0,86,0.00,,,0.00,meteohub,2013-08-24 07:02:00,
2013-08-24 02:07:00,65.8,61.9,30.13,ENE,74,1.0,2.0,87,0.00,,,0.00,meteohub,2013-08-24 07:07:00,
2013-08-24 02:12:00,65.8,61.9,30.13,East,84,0.0,4.0,87,0.00,,,0.00,meteohub,2013-08-24 07:12:00,
2013-08-24 02:17:00,65.8,61.9,30.13,East,82,0.0,4.0,87,0.00,,,0.00,meteohub,2013-08-24 07:17:00,
2013-08-24 02:22:00,65.7,61.7,30.13,East,90,2.0,4.0,87,0.00,,,0.00,meteohub,2013-08-24 07:22:00,
2013-08-24 02:27:00,65.5,61.5,30.13,East,89,2.0,4.0,87,0.00,,,0.00,meteohub,2013-08-24 07:27:00,
2013-08-24 02:32:00,65.5,61.5,30.13,ESE,105,0.0,4.0,87,0.00,,,0.00,meteohub,2013-08-24 07:32:00,
2013-08-24 02:37:00,65.3,61.7,30.13,ENE,58,1.0,4.0,88,0.00,,,0.00,meteohub,2013-08-24 07:37:00,
2013-08-24 02:42:00,65.3,61.7,30.13,ENE,63,1.0,4.0,88,0.00,,,0.00,meteohub,2013-08-24 07:42:00,
2013-08-24 02:47:00,65.1,61.5,30.14,East,82,0.0,4.0,88,0.00,,,0.00,meteohub,2013-08-24 07:47:00,
2013-08-24 02:52:00,65.1,61.5,30.14,East,83,0.0,3.0,88,0.00,,,0.00,meteohub,2013-08-24 07:52:00,
2013-08-24 02:57:00,65.1,61.5,30.14,ENE,75,1.0,3.0,88,0.00,,,0.00,meteohub,2013-08-24 07:57:00,
2013-08-24 03:02:00,64.9,61.3,30.14,East,79,0.0,2.0,88,0.00,,,0.00,meteohub,2013-08-24 08:02:00,
2013-08-24 03:08:00,64.9,61.3,30.14,ESE,103,1.0,4.0,88,0.00,,,0.00,meteohub,2013-08-24 08:08:00,
2013-08-24 03:13:00,64.9,61.3,30.14,ENE,76,0.0,4.0,88,0.00,,,0.00,meteohub,2013-08-24 08:13:00,
2013-08-24 03:18:00,64.8,61.2,30.14,ENE,72,0.0,3.0,88,0.00,,,0.00,meteohub,2013-08-24 08:18:00,
2013-08-24 03:23:00,64.4,61.2,30.15,ENE,72,0.0,3.0,89,0.00,,,0.00,meteohub,2013-08-24 08:23:00,
2013-08-24 03:28:00,64.2,61.0,30.15,ENE,72,1.0,1.0,89,0.00,,,0.00,meteohub,2013-08-24 08:28:00,
2013-08-24 03:33:00,64.0,60.8,30.15,ENE,70,0.0,2.0,89,0.00,,,0.00,meteohub,2013-08-24 08:33:00,
2013-08-24 03:38:00,63.9,60.6,30.15,ENE,73,0.0,2.0,89,0.00,,,0.00,meteohub,2013-08-24 08:38:00,
2013-08-24 03:43:00,63.9,60.8,30.15,ENE,69,0.0,2.0,90,0.00,,,0.00,meteohub,2013-08-24 08:43:00,
2013-08-24 03:48:00,63.7,60.6,30.15,ENE,71,1.0,1.0,90,0.00,,,0.00,meteohub,2013-08-24 08:48:00,
2013-08-24 03:53:00,63.7,60.6,30.16,ENE,65,2.0,2.0,90,0.00,,,0.00,meteohub,2013-08-24 08:53:00,
2013-08-24 03:58:00,63.5,60.4,30.16,ENE,61,0.0,2.0,90,0.00,,,0.00,meteohub,2013-08-24 08:58:00,
2013-08-24 04:03:00,63.3,60.6,30.16,East,80,1.0,3.0,91,0.00,,,0.00,meteohub,2013-08-24 09:03:00,
2013-08-24 04:08:00,63.3,60.6,30.16,East,81,1.0,3.0,91,0.00,,,0.00,meteohub,2013-08-24 09:08:00,
2013-08-24 04:13:00,63.3,60.6,30.16,ENE,59,2.0,3.0,91,0.00,,,0.00,meteohub,2013-08-24 09:13:00,
2013-08-24 04:18:00,63.3,60.6,30.16,East,92,0.0,2.0,91,0.00,,,0.00,meteohub,2013-08-24 09:18:00,
2013-08-24 04:24:00,63.3,60.6,30.17,East,79,1.0,3.0,91,0.00,,,0.00,meteohub,2013-08-24 09:24:00,
2013-08-24 04:29:00,63.1,60.1,30.17,East,80,0.0,3.0,90,0.00,,,0.00,meteohub,2013-08-24 09:29:00,
2013-08-24 04:34:00,63.1,60.4,30.17,ENE,75,0.0,2.0,91,0.00,,,0.00,meteohub,2013-08-24 09:34:00,
2013-08-24 04:39:00,63.1,60.4,30.17,East,88,0.0,5.0,91,0.00,,,0.00,meteohub,2013-08-24 09:39:00,
2013-08-24 04:44:00,63.1,60.1,30.17,East,79,0.0,5.0,90,0.00,,,0.00,meteohub,2013-08-24 09:44:00,
2013-08-24 04:49:00,63.1,60.4,30.17,East,85,2.0,5.0,91,0.00,,,0.00,meteohub,2013-08-24 09:49:00,
2013-08-24 04:54:00,63.1,60.4,30.17,ENE,74,1.0,3.0,91,0.00,,,0.00,meteohub,2013-08-24 09:54:00,
2013-08-24 04:59:00,63.0,60.3,30.17,ENE,76,0.0,3.0,91,0.00,,,0.00,meteohub,2013-08-24 09:59:00,
2013-08-24 05:04:00,63.0,60.3,30.17,ENE,75,0.0,4.0,91,0.00,,,0.00,meteohub,2013-08-24 10:04:00,
2013-08-24 05:09:00,62.8,60.1,30.18,East,83,0.0,4.0,91,0.00,,,0.00,meteohub,2013-08-24 10:09:00,
2013-08-24 05:14:00,62.8,60.1,30.17,ENE,73,0.0,4.0,91,0.00,,,0.00,meteohub,2013-08-24 10:14:00,
2013-08-24 05:19:00,62.8,60.1,30.18,ENE,78,1.0,3.0,91,0.00,,,0.00,meteohub,2013-08-24 10:19:00,
2013-08-24 05:24:00,62.6,59.9,30.18,East,90,1.0,4.0,91,0.00,,,0.00,meteohub,2013-08-24 10:24:00,
2013-08-24 05:29:00,62.4,59.7,30.18,ENE,78,0.0,4.0,91,0.00,,,0.00,meteohub,2013-08-24 10:29:00,
2013-08-24 05:34:00,62.2,59.5,30.18,ENE,65,1.0,4.0,91,0.00,,,0.00,meteohub,2013-08-24 10:34:00,
2013-08-24 05:39:00,62.2,59.9,30.18,East,89,1.0,4.0,92,0.00,,,0.00,meteohub,2013-08-24 10:39:00,
2013-08-24 05:44:00,62.2,59.5,30.18,ENE,61,1.0,4.0,91,0.00,,,0.00,meteohub,2013-08-24 10:44:00,
2013-08-24 05:50:00,62.2,59.9,30.18,East,86,0.0,3.0,92,0.00,,,0.00,meteohub,2013-08-24 10:50:00,
2013-08-24 05:55:00,62.1,59.4,30.19,ENE,70,0.0,3.0,91,0.00,,,0.00,meteohub,2013-08-24 10:55:00,
2013-08-24 06:00:00,62.1,59.7,30.19,East,81,0.0,2.0,92,0.00,,,0.00,meteohub,2013-08-24 11:00:00,
2013-08-24 06:05:00,61.9,59.2,30.19,East,90,1.0,4.0,91,0.00,,,0.00,meteohub,2013-08-24 11:05:00,
2013-08-24 06:10:00,61.9,59.5,30.19,East,79,0.0,5.0,92,0.00,,,0.00,meteohub,2013-08-24 11:10:00,
2013-08-24 06:15:00,61.9,59.2,30.19,East,80,1.0,5.0,91,0.00,,,0.00,meteohub,2013-08-24 11:15:00,
2013-08-24 06:20:00,61.9,59.2,30.19,East,87,0.0,5.0,91,0.00,,,0.00,meteohub,2013-08-24 11:20:00,
2013-08-24 06:25:00,61.9,59.2,30.19,ENE,78,0.0,4.0,91,0.00,,,0.00,meteohub,2013-08-24 11:25:00,
2013-08-24 06:30:00,61.9,59.2,30.20,ENE,67,0.0,3.0,91,0.00,,,0.00,meteohub,2013-08-24 11:30:00,
2013-08-24 06:35:00,61.7,59.4,30.20,ENE,68,0.0,3.0,92,0.00,,,0.00,meteohub,2013-08-24 11:35:00,
2013-08-24 06:40:00,61.9,59.2,30.20,East,88,0.0,4.0,91,0.00,,,0.00,meteohub,2013-08-24 11:40:00,
2013-08-24 06:45:00,62.1,59.4,30.20,ENE,70,0.0,4.0,91,0.00,,,0.00,meteohub,2013-08-24 11:45:00,
2013-08-24 06:50:00,62.2,59.5,30.20,ENE,65,0.0,4.0,91,0.00,,,0.00,meteohub,2013-08-24 11:50:00,
2013-08-24 06:55:00,62.6,59.5,30.21,ENE,59,0.0,2.0,90,0.00,,,0.00,meteohub,2013-08-24 11:55:00,
2013-08-24 07:00:00,63.0,59.9,30.21,NE,56,0.0,2.0,90,0.00,,,0.00,meteohub,2013-08-24 12:00:00,
2013-08-24 07:05:00,63.1,59.9,30.21,NE,53,0.0,2.0,89,0.00,,,0.00,meteohub,2013-08-24 12:05:00,
2013-08-24 07:10:00,63.5,60.3,30.21,ENE,62,2.0,2.0,89,0.00,,,0.00,meteohub,2013-08-24 12:10:00,
2013-08-24 07:15:00,64.0,60.4,30.21,ENE,77,1.0,2.0,88,0.00,,,0.00,meteohub,2013-08-24 12:15:00,
2013-08-24 07:20:00,64.6,60.6,30.21,East,86,0.0,2.0,87,0.00,,,0.00,meteohub,2013-08-24 12:20:00,
2013-08-24 07:26:00,65.1,60.8,30.22,ENE,78,0.0,2.0,86,0.00,,,0.00,meteohub,2013-08-24 12:26:00,
2013-08-24 07:31:00,65.7,61.0,30.22,ENE,75,0.0,2.0,85,0.00,,,0.00,meteohub,2013-08-24 12:31:00,
2013-08-24 07:36:00,66.4,61.3,30.22,ENE,69,0.0,2.0,84,0.00,,,0.00,meteohub,2013-08-24 12:36:00,
2013-08-24 07:41:00,67.3,61.5,30.22,East,80,0.0,2.0,82,0.00,,,0.00,meteohub,2013-08-24 12:41:00,
2013-08-24 07:46:00,68.2,62.1,30.22,East,90,0.0,6.0,81,0.00,,,0.00,meteohub,2013-08-24 12:46:00,
2013-08-24 07:51:00,68.7,61.9,30.22,ESE,121,0.0,6.0,79,0.00,,,0.00,meteohub,2013-08-24 12:51:00,
2013-08-24 07:56:00,69.3,61.7,30.22,SSE,151,1.0,6.0,77,0.00,,,0.00,meteohub,2013-08-24 12:56:00,
2013-08-24 08:01:00,69.6,61.7,30.22,SE,144,0.0,6.0,76,0.00,,,0.00,meteohub,2013-08-24 13:01:00,
2013-08-24 08:06:00,70.2,62.2,30.22,SSE,160,2.0,6.0,76,0.00,,,0.00,meteohub,2013-08-24 13:06:00,
2013-08-24 08:11:00,70.3,62.1,30.22,SE,126,4.0,7.0,75,0.00,,,0.00,meteohub,2013-08-24 13:11:00,
2013-08-24 08:16:00,70.9,62.2,30.22,South,175,1.0,7.0,74,0.00,,,0.00,meteohub,2013-08-24 13:16:00,
2013-08-24 08:21:00,71.2,62.1,30.22,ESE,113,2.0,7.0,73,0.00,,,0.00,meteohub,2013-08-24 13:21:00,
2013-08-24 08:26:00,71.6,62.1,30.22,ESE,114,4.0,7.0,72,0.00,,,0.00,meteohub,2013-08-24 13:26:00,
2013-08-24 08:31:00,72.0,62.1,30.22,South,184,6.0,7.0,71,0.00,,,0.00,meteohub,2013-08-24 13:31:00,
2013-08-24 08:36:00,72.5,62.6,30.22,WSW,238,1.0,7.0,71,0.00,,,0.00,meteohub,2013-08-24 13:36:00,
2013-08-24 08:41:00,72.9,62.4,30.22,SSE,163,4.0,7.0,70,0.00,,,0.00,meteohub,2013-08-24 13:41:00,
2013-08-24 08:46:00,73.2,62.4,30.22,WSW,253,3.0,7.0,69,0.00,,,0.00,meteohub,2013-08-24 13:46:00,
2013-08-24 08:51:00,73.6,62.4,30.22,South,186,5.0,7.0,68,0.00,,,0.00,meteohub,2013-08-24 13:51:00,
2013-08-24 08:56:00,73.8,63.0,30.22,SSE,152,7.0,8.0,69,0.00,,,0.00,meteohub,2013-08-24 13:56:00,
2013-08-24 09:01:00,73.8,62.6,30.22,SSE,155,5.0,9.0,68,0.00,,,0.00,meteohub,2013-08-24 14:01:00,
2013-08-24 09:06:00,73.9,63.1,30.22,South,179,5.0,9.0,69,0.00,,,0.00,meteohub,2013-08-24 14:06:00,
2013-08-24 09:12:00,74.5,63.7,30.22,SW,222,4.0,9.0,69,0.00,,,0.00,meteohub,2013-08-24 14:12:00,
2013-08-24 09:17:00,75.0,63.7,30.22,SE,136,4.0,8.0,68,0.00,,,0.00,meteohub,2013-08-24 14:17:00,
2013-08-24 09:22:00,75.4,64.0,30.22,ENE,68,0.0,8.0,68,0.00,,,0.00,meteohub,2013-08-24 14:22:00,
2013-08-24 09:27:00,75.6,63.3,30.22,SE,131,5.0,8.0,66,0.00,,,0.00,meteohub,2013-08-24 14:27:00,
2013-08-24 09:32:00,75.9,63.7,30.22,South,172,5.0,8.0,66,0.00,,,0.00,meteohub,2013-08-24 14:32:00,
2013-08-24 09:37:00,76.6,63.1,30.22,SE,141,8.0,8.0,63,0.00,,,0.00,meteohub,2013-08-24 14:37:00,
2013-08-24 09:42:00,76.6,63.5,30.22,SW,216,5.0,10.0,64,0.00,,,0.00,meteohub,2013-08-24 14:42:00,
2013-08-24 09:47:00,77.0,63.5,30.22,South,169,2.0,10.0,63,0.00,,,0.00,meteohub,2013-08-24 14:47:00,
2013-08-24 09:52:00,77.5,63.9,30.23,SE,126,2.0,10.0,63,0.00,,,0.00,meteohub,2013-08-24 14:52:00,
2013-08-24 09:57:00,77.7,63.7,30.23,ESE,119,6.0,7.0,62,0.00,,,0.00,meteohub,2013-08-24 14:57:00,
2013-08-24 10:02:00,78.3,64.6,30.22,ESE,113,1.0,7.0,63,0.00,,,0.00,meteohub,2013-08-24 15:02:00,
2013-08-24 10:07:00,78.6,64.0,30.23,SSE,166,0.0,6.0,61,0.00,,,0.00,meteohub,2013-08-24 15:07:00,
2013-08-24 10:12:00,78.6,63.5,30.23,SSE,152,5.0,6.0,60,0.00,,,0.00,meteohub,2013-08-24 15:12:00,
2013-08-24 10:17:00,78.6,63.5,30.22,South,171,5.0,8.0,60,0.00,,,0.00,meteohub,2013-08-24 15:17:00,
2013-08-24 10:22:00,78.6,63.5,30.22,SSE,148,8.0,8.0,60,0.00,,,0.00,meteohub,2013-08-24 15:22:00,
2013-08-24 10:27:00,79.0,63.9,30.22,South,182,8.0,8.0,60,0.00,,,0.00,meteohub,2013-08-24 15:27:00,
2013-08-24 10:32:00,79.5,63.9,30.22,SSW,205,6.0,9.0,59,0.00,,,0.00,meteohub,2013-08-24 15:32:00,
2013-08-24 10:37:00,80.1,63.9,30.22,SSE,159,2.0,9.0,58,0.00,,,0.00,meteohub,2013-08-24 15:37:00,
2013-08-24 10:42:00,80.2,64.0,30.22,SSE,163,6.0,9.0,58,0.00,,,0.00,meteohub,2013-08-24 15:42:00,
2013-08-24 10:47:00,80.6,64.4,30.22,SW,224,2.0,9.0,58,0.00,,,0.00,meteohub,2013-08-24 15:47:00,
2013-08-24 10:52:00,81.1,64.0,30.22,SE,136,2.0,9.0,56,0.00,,,0.00,meteohub,2013-08-24 15:52:00,
2013-08-24 10:57:00,81.3,64.0,30.22,SSE,166,7.0,9.0,56,0.00,,,0.00,meteohub,2013-08-24 15:57:00,
2013-08-24 11:02:00,81.0,63.9,30.22,SE,146,6.0,9.0,56,0.00,,,0.00,meteohub,2013-08-24 16:02:00,
2013-08-24 11:07:00,81.1,64.0,30.22,SE,130,6.0,9.0,56,0.00,,,0.00,meteohub,2013-08-24 16:07:00,
2013-08-24 11:12:00,81.1,63.0,30.22,NE,37,4.0,9.0,54,0.00,,,0.00,meteohub,2013-08-24 16:12:00,
2013-08-24 11:17:00,81.5,63.9,30.22,SW,229,4.0,9.0,55,0.00,,,0.00,meteohub,2013-08-24 16:17:00,
2013-08-24 11:22:00,81.7,63.5,30.23,SSW,211,1.0,9.0,54,0.00,,,0.00,meteohub,2013-08-24 16:22:00,
2013-08-24 11:27:00,81.9,63.0,30.22,SSE,150,8.0,10.0,53,0.00,,,0.00,meteohub,2013-08-24 16:27:00,
2013-08-24 11:32:00,82.0,62.6,30.22,ESE,113,5.0,10.0,52,0.00,,,0.00,meteohub,2013-08-24 16:32:00,
2013-08-24 11:37:00,82.8,63.3,30.22,SSW,192,5.0,8.0,52,0.00,,,0.00,meteohub,2013-08-24 16:37:00,
2013-08-24 11:42:00,82.8,62.8,30.22,SE,145,5.0,8.0,51,0.00,,,0.00,meteohub,2013-08-24 16:42:00,
2013-08-24 11:47:00,82.8,62.8,30.22,East,96,2.0,8.0,51,0.00,,,0.00,meteohub,2013-08-24 16:47:00,
2013-08-24 11:52:00,82.6,62.6,30.22,East,90,2.0,8.0,51,0.00,,,0.00,meteohub,2013-08-24 16:52:00,
2013-08-24 11:57:00,82.9,62.4,30.22,ESE,120,6.0,8.0,50,0.00,,,0.00,meteohub,2013-08-24 16:57:00,
2013-08-24 12:02:00,82.8,62.8,30.22,ENE,59,4.0,9.0,51,0.00,,,0.00,meteohub,2013-08-24 17:02:00,
2013-08-24 12:07:00,82.6,62.6,30.22,ESE,110,4.0,9.0,51,0.00,,,0.00,meteohub,2013-08-24 17:07:00,
2013-08-24 12:12:00,82.9,63.5,30.21,SE,124,3.0,9.0,52,0.00,,,0.00,meteohub,2013-08-24 17:12:00,
2013-08-24 12:17:00,83.7,63.0,30.21,SSE,163,4.0,8.0,50,0.00,,,0.00,meteohub,2013-08-24 17:17:00,
2013-08-24 12:22:00,83.8,62.6,30.21,East,81,1.0,7.0,49,0.00,,,0.00,meteohub,2013-08-24 17:22:00,
2013-08-24 12:27:00,83.8,62.1,30.21,South,179,5.0,8.0,48,0.00,,,0.00,meteohub,2013-08-24 17:27:00,
2013-08-24 12:32:00,83.7,62.4,30.21,SSW,198,1.0,9.0,49,0.00,,,0.00,meteohub,2013-08-24 17:32:00,
2013-08-24 12:37:00,84.2,62.4,30.21,SSE,161,5.0,9.0,48,0.00,,,0.00,meteohub,2013-08-24 17:37:00,
2013-08-24 12:42:00,84.2,62.4,30.21,SE,129,1.0,9.0,48,0.00,,,0.00,meteohub,2013-08-24 17:42:00,
2013-08-24 12:47:00,84.0,61.7,30.21,South,173,5.0,7.0,47,0.00,,,0.00,meteohub,2013-08-24 17:47:00,
2013-08-24 12:52:00,84.2,62.4,30.21,ENE,67,1.0,7.0,48,0.00,,,0.00,meteohub,2013-08-24 17:52:00,
2013-08-24 12:57:00,84.4,61.3,30.21,SSE,155,2.0,7.0,46,0.00,,,0.00,meteohub,2013-08-24 17:57:00,
2013-08-24 13:02:00,84.7,62.2,30.20,SSW,194,4.0,6.0,47,0.00,,,0.00,meteohub,2013-08-24 18:02:00,
2013-08-24 13:07:00,85.6,62.4,30.20,SSE,161,5.0,8.0,46,0.00,,,0.00,meteohub,2013-08-24 18:07:00,
2013-08-24 13:12:00,85.3,62.2,30.20,SSE,148,5.0,8.0,46,0.00,,,0.00,meteohub,2013-08-24 18:12:00,
2013-08-24 13:17:00,84.7,61.0,30.20,SE,142,5.0,8.0,45,0.00,,,0.00,meteohub,2013-08-24 18:17:00,
2013-08-24 13:22:00,85.1,62.1,30.20,SE,146,0.0,9.0,46,0.00,,,0.00,meteohub,2013-08-24 18:22:00,
2013-08-24 13:27:00,84.7,61.7,30.20,ENE,65,5.0,9.0,46,0.00,,,0.00,meteohub,2013-08-24 18:27:00,
2013-08-24 13:32:00,84.6,61.5,30.20,South,183,1.0,9.0,46,0.00,,,0.00,meteohub,2013-08-24 18:32:00,
2013-08-24 13:37:00,85.3,62.2,30.20,SE,124,2.0,9.0,46,0.00,,,0.00,meteohub,2013-08-24 18:37:00,
2013-08-24 13:42:00,85.1,62.6,30.20,SSW,204,5.0,9.0,47,0.00,,,0.00,meteohub,2013-08-24 18:42:00,
2013-08-24 13:47:00,84.9,62.4,30.20,SSW,198,5.0,8.0,47,0.00,,,0.00,meteohub,2013-08-24 18:47:00,
2013-08-24 13:52:00,84.9,61.9,30.20,ENE,60,6.0,8.0,46,0.00,,,0.00,meteohub,2013-08-24 18:52:00,
2013-08-24 13:57:00,84.7,61.7,30.20,East,98,3.0,8.0,46,0.00,,,0.00,meteohub,2013-08-24 18:57:00,
2013-08-24 14:02:00,84.7,61.7,30.19,NW,313,0.0,7.0,46,0.00,,,0.00,meteohub,2013-08-24 19:02:00,
2013-08-24 14:07:00,85.3,62.2,30.19,SSW,207,3.0,7.0,46,0.00,,,0.00,meteohub,2013-08-24 19:07:00,
2013-08-24 14:12:00,86.0,62.2,30.19,South,188,4.0,8.0,45,0.00,,,0.00,meteohub,2013-08-24 19:12:00,
2013-08-24 14:17:00,86.2,61.0,30.19,South,187,6.0,8.0,43,0.00,,,0.00,meteohub,2013-08-24 19:17:00,
2013-08-24 14:22:00,86.5,62.1,30.19,ESE,117,2.0,8.0,44,0.00,,,0.00,meteohub,2013-08-24 19:22:00,
2013-08-24 14:27:00,86.5,62.1,30.19,South,174,5.0,8.0,44,0.00,,,0.00,meteohub,2013-08-24 19:27:00,
2013-08-24 14:32:00,86.0,62.2,30.19,South,173,6.0,8.0,45,0.00,,,0.00,meteohub,2013-08-24 19:32:00,
2013-08-24 14:37:00,86.0,61.5,30.19,ESE,123,0.0,9.0,44,0.00,,,0.00,meteohub,2013-08-24 19:37:00,
2013-08-24 14:42:00,85.6,61.9,30.19,WSW,241,1.0,9.0,45,0.00,,,0.00,meteohub,2013-08-24 19:42:00,
2013-08-24 14:47:00,85.5,62.2,30.19,SW,215,1.0,9.0,46,0.00,,,0.00,meteohub,2013-08-24 19:47:00,
2013-08-24 14:52:00,85.6,62.4,30.19,South,169,0.0,7.0,46,0.00,,,0.00,meteohub,2013-08-24 19:52:00,
2013-08-24 14:57:00,86.4,62.4,30.19,SSW,205,5.0,6.0,45,0.00,,,0.00,meteohub,2013-08-24 19:57:00,
2013-08-24 15:02:00,86.4,61.9,30.18,SSW,197,1.0,7.0,44,0.00,,,0.00,meteohub,2013-08-24 20:02:00,
2013-08-24 15:07:00,86.4,61.9,30.18,SSE,159,0.0,7.0,44,0.00,,,0.00,meteohub,2013-08-24 20:07:00,
2013-08-24 15:12:00,86.4,61.9,30.18,ESE,111,1.0,8.0,44,0.00,,,0.00,meteohub,2013-08-24 20:12:00,
2013-08-24 15:17:00,86.0,61.5,30.18,South,173,5.0,8.0,44,0.00,,,0.00,meteohub,2013-08-24 20:17:00,
2013-08-24 15:22:00,86.4,61.2,30.18,SSE,148,4.0,7.0,43,0.00,,,0.00,meteohub,2013-08-24 20:22:00,
2013-08-24 15:27:00,86.0,61.5,30.18,SW,230,0.0,7.0,44,0.00,,,0.00,meteohub,2013-08-24 20:27:00,
2013-08-24 15:32:00,86.0,62.2,30.17,South,180,4.0,7.0,45,0.00,,,0.00,meteohub,2013-08-24 20:32:00,
2013-08-24 15:37:00,86.2,61.7,30.17,South,171,2.0,7.0,44,0.00,,,0.00,meteohub,2013-08-24 20:37:00,
2013-08-24 15:42:00,85.8,60.8,30.17,South,169,4.0,7.0,43,0.00,,,0.00,meteohub,2013-08-24 20:42:00,
2013-08-24 15:47:00,86.2,61.0,30.17,NE,49,5.0,7.0,43,0.00,,,0.00,meteohub,2013-08-24 20:47:00,
2013-08-24 15:52:00,86.2,61.0,30.17,NE,40,0.0,7.0,43,0.00,,,0.00,meteohub,2013-08-24 20:52:00,
2013-08-24 15:57:00,86.4,61.9,30.17,SSW,192,1.0,6.0,44,0.00,,,0.00,meteohub,2013-08-24 20:57:00,
2013-08-24 16:02:00,86.5,62.6,30.17,ESE,110,0.0,6.0,45,0.00,,,0.00,meteohub,2013-08-24 21:02:00,
2013-08-24 16:07:00,86.5,61.3,30.17,North,355,0.0,5.0,43,0.00,,,0.00,meteohub,2013-08-24 21:07:00,
2013-08-24 16:12:00,86.4,61.9,30.17,ESE,115,4.0,6.0,44,0.00,,,0.00,meteohub,2013-08-24 21:12:00,
2013-08-24 16:17:00,86.4,62.4,30.17,SE,130,6.0,6.0,45,0.00,,,0.00,meteohub,2013-08-24 21:17:00,
2013-08-24 16:22:00,86.2,61.7,30.17,East,95,4.0,8.0,44,0.00,,,0.00,meteohub,2013-08-24 21:22:00,
2013-08-24 16:27:00,86.4,61.9,30.17,SE,126,5.0,8.0,44,0.00,,,0.00,meteohub,2013-08-24 21:27:00,
2013-08-24 16:32:00,86.2,61.7,30.17,South,175,2.0,8.0,44,0.00,,,0.00,meteohub,2013-08-24 21:32:00,
2013-08-24 16:37:00,86.0,61.5,30.17,SE,135,5.0,8.0,44,0.00,,,0.00,meteohub,2013-08-24 21:37:00,
2013-08-24 16:42:00,86.2,61.7,30.17,South,179,4.0,8.0,44,0.00,,,0.00,meteohub,2013-08-24 21:42:00,
2013-08-24 16:47:00,86.2,61.7,30.17,ENE,72,4.0,8.0,44,0.00,,,0.00,meteohub,2013-08-24 21:47:00,
2013-08-24 16:52:00,85.8,61.3,30.17,ESE,111,0.0,7.0,44,0.00,,,0.00,meteohub,2013-08-24 21:52:00,
2013-08-24 16:57:00,85.8,60.8,30.17,East,80,1.0,7.0,43,0.00,,,0.00,meteohub,2013-08-24 21:57:00,
2013-08-24 17:02:00,85.8,62.6,30.17,SSE,154,0.0,7.0,46,0.00,,,0.00,meteohub,2013-08-24 22:02:00,
2013-08-24 17:07:00,85.6,63.1,30.17,East,90,4.0,6.0,47,0.00,,,0.00,meteohub,2013-08-24 22:07:00,
2013-08-24 17:12:00,85.6,62.4,30.17,East,92,1.0,6.0,46,0.00,,,0.00,meteohub,2013-08-24 22:12:00,
2013-08-24 17:17:00,85.6,61.9,30.17,SSE,148,4.0,6.0,45,0.00,,,0.00,meteohub,2013-08-24 22:17:00,
2013-08-24 17:22:00,85.5,62.2,30.17,SE,142,5.0,7.0,46,0.00,,,0.00,meteohub,2013-08-24 22:22:00,
2013-08-24 17:27:00,85.3,62.2,30.17,SE,127,3.0,7.0,46,0.00,,,0.00,meteohub,2013-08-24 22:27:00,
2013-08-24 17:32:00,85.3,62.8,30.17,East,83,2.0,7.0,47,0.00,,,0.00,meteohub,2013-08-24 22:32:00,
2013-08-24 17:37:00,85.1,63.1,30.17,South,177,2.0,6.0,48,0.00,,,0.00,meteohub,2013-08-24 22:37:00,
2013-08-24 17:42:00,85.1,63.1,30.17,SSW,193,2.0,5.0,48,0.00,,,0.00,meteohub,2013-08-24 22:42:00,
2013-08-24 17:47:00,84.9,63.0,30.17,ENE,65,0.0,5.0,48,0.00,,,0.00,meteohub,2013-08-24 22:47:00,
2013-08-24 17:52:00,84.6,63.3,30.17,ENE,59,1.0,5.0,49,0.00,,,0.00,meteohub,2013-08-24 22:52:00,
2013-08-24 17:57:00,84.4,62.6,30.17,ESE,117,1.0,5.0,48,0.00,,,0.00,meteohub,2013-08-24 22:57:00,
2013-08-24 18:02:00,84.4,63.7,30.17,ENE,61,0.0,5.0,50,0.00,,,0.00,meteohub,2013-08-24 23:02:00,
2013-08-24 18:07:00,84.0,62.2,30.17,ENE,69,1.0,7.0,48,0.00,,,0.00,meteohub,2013-08-24 23:07:00,
2013-08-24 18:12:00,83.7,62.4,30.17,East,98,0.0,7.0,49,0.00,,,0.00,meteohub,2013-08-24 23:12:00,
2013-08-24 18:17:00,83.5,63.0,30.17,ESE,109,0.0,8.0,50,0.00,,,0.00,meteohub,2013-08-24 23:17:00,
2013-08-24 18:22:00,83.5,63.0,30.17,SSE,150,3.0,8.0,50,0.00,,,0.00,meteohub,2013-08-24 23:22:00,
2013-08-24 18:27:00,83.3,62.8,30.17,SE,139,4.0,7.0,50,0.00,,,0.00,meteohub,2013-08-24 23:27:00,
2013-08-24 18:32:00,82.9,62.4,30.17,East,90,0.0,6.0,50,0.00,,,0.00,meteohub,2013-08-24 23:32:00,
2013-08-24 18:37:00,82.8,62.8,30.16,ESE,115,2.0,6.0,51,0.00,,,0.00,meteohub,2013-08-24 23:37:00,
2013-08-24 18:42:00,82.6,62.1,30.16,East,88,1.0,6.0,50,0.00,,,0.00,meteohub,2013-08-24 23:42:00,
2013-08-24 18:47:00,82.2,62.2,30.16,ESE,112,0.0,5.0,51,0.00,,,0.00,meteohub,2013-08-24 23:47:00,
2013-08-24 18:52:00,82.0,61.5,30.16,SE,132,0.0,4.0,50,0.00,,,0.00,meteohub,2013-08-24 23:52:00,
2013-08-24 18:57:00,81.7,61.9,30.16,East,98,1.0,5.0,51,0.00,,,0.00,meteohub,2013-08-24 23:57:00,
2013-08-24 19:02:00,81.1,61.9,30.16,SSE,151,0.0,5.0,52,0.00,,,0.00,meteohub,2013-08-25 00:02:00,
2013-08-24 19:07:00,81.0,61.7,30.16,ESE,118,4.0,5.0,52,0.00,,,0.00,meteohub,2013-08-25 00:07:00,
2013-08-24 19:12:00,80.2,61.5,30.16,ESE,119,0.0,5.0,53,0.00,,,0.00,meteohub,2013-08-25 00:12:00,
2013-08-24 19:17:00,79.9,61.7,30.16,East,90,0.0,5.0,54,0.00,,,0.00,meteohub,2013-08-25 00:17:00,
2013-08-24 19:22:00,79.3,61.7,30.16,ENE,71,0.0,5.0,55,0.00,,,0.00,meteohub,2013-08-25 00:22:00,
2013-08-24 19:27:00,79.0,61.9,30.16,ENE,73,0.0,4.0,56,0.00,,,0.00,meteohub,2013-08-25 00:27:00,
2013-08-24 19:32:00,78.6,62.1,30.16,ESE,115,0.0,4.0,57,0.00,,,0.00,meteohub,2013-08-25 00:32:00,
2013-08-24 19:37:00,78.3,62.2,30.16,ESE,107,0.0,3.0,58,0.00,,,0.00,meteohub,2013-08-25 00:37:00,
2013-08-24 19:42:00,78.1,61.5,30.17,East,83,0.0,2.0,57,0.00,,,0.00,meteohub,2013-08-25 00:42:00,
2013-08-24 19:47:00,77.5,61.5,30.16,East,82,0.0,2.0,58,0.00,,,0.00,meteohub,2013-08-25 00:47:00,
2013-08-24 19:52:00,77.2,61.7,30.17,ENE,69,0.0,2.0,59,0.00,,,0.00,meteohub,2013-08-25 00:52:00,
2013-08-24 19:57:00,76.6,61.7,30.16,East,87,0.0,2.0,60,0.00,,,0.00,meteohub,2013-08-25 00:57:00,
2013-08-24 20:02:00,76.5,61.5,30.17,ENE,65,0.0,1.0,60,0.00,,,0.00,meteohub,2013-08-25 01:02:00,
2013-08-24 20:07:00,75.9,61.5,30.17,East,81,1.0,2.0,61,0.00,,,0.00,meteohub,2013-08-25 01:07:00,
2013-08-24 20:12:00,75.6,61.2,30.17,ENE,69,0.0,2.0,61,0.00,,,0.00,meteohub,2013-08-25 01:12:00,
2013-08-24 20:17:00,75.0,61.5,30.17,ENE,74,0.0,2.0,63,0.00,,,0.00,meteohub,2013-08-25 01:17:00,
2013-08-24 20:22:00,74.7,61.7,30.17,ENE,64,0.0,2.0,64,0.00,,,0.00,meteohub,2013-08-25 01:22:00,
2013-08-24 20:27:00,74.5,62.4,30.17,ENE,74,0.0,2.0,66,0.00,,,0.00,meteohub,2013-08-25 01:27:00,
2013-08-24 20:32:00,73.9,62.2,30.18,ENE,72,0.0,1.0,67,0.00,,,0.00,meteohub,2013-08-25 01:32:00,
2013-08-24 20:37:00,73.6,62.4,30.18,ENE,69,0.0,0.0,68,0.00,,,0.00,meteohub,2013-08-25 01:37:00,
2013-08-24 20:42:00,73.2,62.4,30.18,ENE,68,0.0,0.0,69,0.00,,,0.00,meteohub,2013-08-25 01:42:00,
2013-08-24 20:47:00,72.9,62.4,30.18,ENE,78,0.0,1.0,70,0.00,,,0.00,meteohub,2013-08-25 01:47:00,
2013-08-24 20:52:00,72.3,62.1,30.18,ENE,76,0.0,1.0,70,0.00,,,0.00,meteohub,2013-08-25 01:52:00,
2013-08-24 20:57:00,72.1,62.2,30.19,ENE,73,0.0,1.0,71,0.00,,,0.00,meteohub,2013-08-25 01:57:00,
2013-08-24 21:02:00,72.0,61.7,30.18,East,86,0.0,0.0,70,0.00,,,0.00,meteohub,2013-08-25 02:02:00,
2013-08-24 21:07:00,72.0,61.7,30.19,ENE,75,0.0,0.0,70,0.00,,,0.00,meteohub,2013-08-25 02:07:00,
2013-08-24 21:12:00,71.8,61.5,30.18,East,84,0.0,1.0,70,0.00,,,0.00,meteohub,2013-08-25 02:12:00,
2013-08-24 21:17:00,71.6,61.3,30.18,East,84,0.0,1.0,70,0.00,,,0.00,meteohub,2013-08-25 02:17:00,
2013-08-24 21:22:00,71.4,60.8,30.19,ENE,77,0.0,2.0,69,0.00,,,0.00,meteohub,2013-08-25 02:22:00,
2013-08-24 21:27:00,71.2,60.6,30.19,ENE,78,0.0,2.0,69,0.00,,,0.00,meteohub,2013-08-25 02:27:00,
2013-08-24 21:32:00,71.2,61.0,30.19,ENE,69,0.0,2.0,70,0.00,,,0.00,meteohub,2013-08-25 02:32:00,
2013-08-24 21:37:00,71.1,60.4,30.19,ENE,59,1.0,2.0,69,0.00,,,0.00,meteohub,2013-08-25 02:37:00,
2013-08-24 21:42:00,71.1,60.4,30.19,ENE,62,0.0,2.0,69,0.00,,,0.00,meteohub,2013-08-25 02:42:00,
2013-08-24 21:48:00,70.9,59.7,30.19,ENE,67,0.0,1.0,68,0.00,,,0.00,meteohub,2013-08-25 02:48:00,
2013-08-24 21:53:00,70.7,60.1,30.19,ENE,75,0.0,1.0,69,0.00,,,0.00,meteohub,2013-08-25 02:53:00,
2013-08-24 21:58:00,70.5,59.9,30.19,East,81,1.0,1.0,69,0.00,,,0.00,meteohub,2013-08-25 02:58:00,
2013-08-24 22:03:00,70.3,59.7,30.20,ENE,76,0.0,2.0,69,0.00,,,0.00,meteohub,2013-08-25 03:03:00,
2013-08-24 22:08:00,70.2,59.5,30.20,ENE,78,0.0,2.0,69,0.00,,,0.00,meteohub,2013-08-25 03:08:00,
2013-08-24 22:13:00,70.0,59.4,30.20,ENE,65,0.0,2.0,69,0.00,,,0.00,meteohub,2013-08-25 03:13:00,
2013-08-24 22:18:00,69.6,59.4,30.20,ENE,71,0.0,2.0,70,0.00,,,0.00,meteohub,2013-08-25 03:18:00,
2013-08-24 22:23:00,69.6,59.4,30.19,East,80,0.0,2.0,70,0.00,,,0.00,meteohub,2013-08-25 03:23:00,
2013-08-24 22:28:00,69.4,59.2,30.19,East,80,0.0,3.0,70,0.00,,,0.00,meteohub,2013-08-25 03:28:00,
2013-08-24 22:33:00,69.3,59.0,30.20,East,79,0.0,3.0,70,0.00,,,0.00,meteohub,2013-08-25 03:33:00,
2013-08-24 22:38:00,69.3,59.0,30.20,ENE,76,0.0,3.0,70,0.00,,,0.00,meteohub,2013-08-25 03:38:00,
2013-08-24 22:43:00,69.3,59.0,30.20,ENE,69,0.0,2.0,70,0.00,,,0.00,meteohub,2013-08-25 03:43:00,
2013-08-24 22:49:00,69.1,59.4,30.20,ENE,61,0.0,2.0,71,0.00,,,0.00,meteohub,2013-08-25 03:49:00,
2013-08-24 22:54:00,69.1,59.4,30.20,ENE,59,0.0,1.0,71,0.00,,,0.00,meteohub,2013-08-25 03:54:00,
2013-08-24 22:59:00,68.7,59.4,30.20,ENE,61,0.0,1.0,72,0.00,,,0.00,meteohub,2013-08-25 03:59:00,
2013-08-24 23:01:00,68.7,59.4,30.20,ENE,60,0.0,0.0,72,0.00,,,0.00,meteohub,2013-08-25 04:01:00,
2013-08-24 23:02:00,68.5,59.2,30.20,ENE,60,0.0,0.0,72,0.00,,,0.00,meteohub,2013-08-25 04:02:00,
2013-08-24 23:03:00,68.5,59.2,30.20,ENE,61,0.0,0.0,72,0.00,,,0.00,meteohub,2013-08-25 04:03:00,
2013-08-24 23:08:00,68.4,59.0,30.20,ENE,60,0.0,0.0,72,0.00,,,0.00,meteohub,2013-08-25 04:08:00,
2013-08-24 23:13:00,68.4,59.0,30.20,ENE,59,0.0,1.0,72,0.00,,,0.00,meteohub,2013-08-25 04:13:00,
2013-08-24 23:19:00,68.2,58.8,30.20,NE,55,0.0,1.0,72,0.00,,,0.00,meteohub,2013-08-25 04:19:00,
2013-08-24 23:24:00,68.0,59.0,30.21,NE,54,0.0,1.0,73,0.00,,,0.00,meteohub,2013-08-25 04:24:00,
2013-08-24 23:29:00,67.8,58.8,30.21,NE,55,0.0,0.0,73,0.00,,,0.00,meteohub,2013-08-25 04:29:00,
2013-08-24 23:34:00,67.6,59.0,30.20,NE,56,0.0,0.0,74,0.00,,,0.00,meteohub,2013-08-25 04:34:00,
2013-08-24 23:39:00,67.5,59.2,30.20,NE,55,0.0,0.0,75,0.00,,,0.00,meteohub,2013-08-25 04:39:00,
2013-08-24 23:44:00,67.1,58.8,30.20,NE,55,0.0,0.0,75,0.00,,,0.00,meteohub,2013-08-25 04:44:00,
2013-08-24 23:49:00,66.7,59.0,30.20,NE,55,0.0,0.0,76,0.00,,,0.00,meteohub,2013-08-25 04:49:00,
2013-08-24 23:54:00,67.3,59.5,30.21,ENE,67,0.0,0.0,76,0.00,,,0.00,meteohub,2013-08-25 04:54:00,
2013-08-24 23:59:00,67.8,59.2,30.21,ENE,77,0.0,0.0,74,0.00,,,0.00,meteohub,2013-08-25 04:59:00,